Tracking 26218 objects as of 26-Sep-2022
HD Live streaming from Space Station
objects crossing your sky now

SL-6 R/B(2)

Track SL-6 R/B(2) now!


NORAD ID: 22241
Int'l Code: 1992-081D
Perigee: 3,912.5 km
Apogee: 35,962.7 km
Inclination: 68.8 °
Period: 707.8 minutes
Semi major axis: 26308 km
RCS: 5.1164 m2 (large)
Launch date: November 25, 1992
Source: Commonwealth of Independent States (former USSR) (CIS)
Launch site: PLESETSK MISSILE AND SPACE COMPLEX (PKMTR)

Note: This is a ROCKET BODY
aabbcc
Your satellite tracking list
Your tracking list is empty




NASA's NSSDC Master Catalog

Two Line Element Set (TLE):
1 22241U 92081D   22268.65609943  .00000659  00000-0  00000-0 0  9993
2 22241  68.8282 104.6614 6091189  55.4540 348.0939  2.03449264221641
Source of the keplerian elements: AFSPC